Location: Harstad
(68.8030°N, 16.5460°E)
Time: 23:14:03
(UTC+02:00)

Envisat - Visible Passes

Search period start: 15 October 2019 00:00
Search period end: 25 October 2019 00:00
Orbit: 764 x 766 km, 98.1° (Epoch: 15 October)

Date Brightness Start Highest point End Pass type
(mag) Time Alt. Az. Time Alt. Az. Time Alt. Az.
15 Oct 6.0 06:15:01 10° NE 06:18:25 18° ENE 06:21:48 10° ESE visible
15 Oct 4.6 19:23:21 10° SSW 19:28:08 39° W 19:32:55 10° NNW visible
15 Oct 6.1 21:05:59 10° WSW 21:08:37 14° WNW 21:11:16 10° NW visible
16 Oct 6.4 05:39:03 10° NE 05:40:55 12° ENE 05:42:46 10° E visible
16 Oct 3.8 18:46:04 10° S 18:51:05 58° WSW 18:56:09 10° NNW visible
16 Oct 5.7 20:27:25 10° SW 20:31:12 21° W 20:34:59 10° NNW visible
17 Oct 5.8 06:40:19 10° NNE 06:44:21 23° E 06:48:21 10° SE visible
17 Oct 3.2 18:09:04 10° SSE 18:14:11 84° WSW 18:19:20 10° NNW visible
17 Oct 5.1 19:49:27 10° SSW 19:53:54 30° W 19:58:23 10° NNW visible
17 Oct 6.4 21:33:46 10° WNW 21:34:42 10° WNW 21:35:37 10° NW visible
18 Oct 6.1 06:03:53 10° NE 06:06:57 16° ENE 06:09:59 10° ESE visible
18 Oct 4.3 19:11:54 10° S 19:16:46 44° W 19:21:39 10° NNW visible
18 Oct 6.0 20:54:06 10° WSW 20:57:09 16° WNW 21:00:12 10° NW visible
19 Oct 6.6 05:28:30 10° NE 05:29:24 10° ENE 05:30:19 10° ENE visible
19 Oct 5.3 07:05:43 10° NNE 07:10:12 30° E 07:14:39 10° SSE visible
19 Oct 3.5 18:34:42 10° S 18:39:46 65° WSW 18:44:52 10° NNW visible
19 Oct 5.5 20:15:45 10° SW 20:19:46 23° W 20:23:48 10° NNW visible
20 Oct 5.9 06:29:07 10° NNE 06:32:55 20° E 06:36:41 10° SE visible
20 Oct 3.1 17:57:47 10° SSE 18:02:53 88° ENE 18:08:02 10° NNW visible
20 Oct 4.9 19:37:54 10° SSW 19:42:31 33° W 19:47:09 10° NNW visible
20 Oct 6.2 21:21:19 10° W 21:23:11 12° WNW 21:25:04 10° NW visible
21 Oct 6.2 05:52:50 10° NE 05:55:28 14° ENE 05:58:06 10° ESE visible
21 Oct 4.1 19:00:29 10° S 19:05:25 49° W 19:10:24 10° NNW visible
21 Oct 5.9 20:42:18 10° WSW 20:45:41 18° WNW 20:49:05 10° NW visible
22 Oct 5.5 06:54:29 10° NNE 06:58:48 27° E 07:03:05 10° SE visible
22 Oct 3.3 18:23:21 10° SSE 18:28:27 72° WSW 18:33:35 10° NNW visible
22 Oct 5.3 20:04:07 10° SW 20:08:20 26° W 20:12:35 10° NNW visible
23 Oct 6.0 06:17:57 10° NE 06:21:28 18° ENE 06:24:58 10° ESE visible
23 Oct 3.0 17:46:31 10° SSE 17:51:38 80° ENE 17:56:45 10° NNW visible
23 Oct 4.6 19:26:25 10° SSW 19:31:08 37° W 19:35:54 10° NNW visible
23 Oct 6.1 21:09:14 10° W 21:11:41 13° WNW 21:14:09 10° NW visible
24 Oct 6.3 05:41:52 10° NE 05:43:59 12° ENE 05:46:06 10° E visible
24 Oct 5.0 07:19:56 10° NNE 07:24:36 35° E 07:29:15 10° SSE visible
24 Oct 3.8 18:49:05 10° S 18:54:05 55° WSW 18:59:07 10° NNW visible
24 Oct 5.7 20:30:33 10° SW 20:34:14 20° W 20:37:56 10° NNW visible
